GW4049 Weather Reports


time (UTC)temp
F
wind
direction
speed
knots
gust
knots
rain 1hr
in
rain 24hr
in
rain mn
in
humidity
%
barometer
mb
20260905171027 75 252 0.0 0.9 0.00 0.00 0.00 33 1033.9
20260905170523 72 282 1.7 3.5 0.00 0.00 0.00 35 1033.6
20260905170018 71 8 1.7 3.5 0.00 0.00 0.00 36 1033.6
20260905165513 70 305 1.7 1.7 0.00 0.00 0.00 35 1033.9
20260905165008 69 271 1.7 3.5 0.00 0.00 0.00 36 1033.6
20260905164502 69 265 0.9 2.6 0.00 0.00 0.00 36 1034.0
20260905163956 69 270 1.7 3.5 0.00 0.00 0.00 37 1033.7
20260905163453 70 338 0.9 3.5 0.00 0.00 0.00 38 1033.5
20260905162949 70 276 1.7 3.5 0.00 0.00 0.00 36 1033.9
20260905162444 72 88 4.3 8.7 0.00 0.00 0.00 35 1033.7
20260905161939 70 7 3.5 6.1 0.00 0.00 0.00 36 1033.6
20260905161438 71 271 2.6 7.0 0.00 0.00 0.00 37 1033.6
20260905160936 71 14 1.7 6.1 0.00 0.00 0.00 36 1033.5
20260905160430 71 299 1.7 3.5 0.00 0.00 0.00 36 1033.5
20260905155930 70 293 3.5 6.1 0.00 0.00 0.00 36 1033.5
20260905155425 71 305 2.6 3.5 0.00 0.00 0.00 35 1033.6
20260905154923 70 247 1.7 2.6 0.00 0.00 0.00 36 1033.6
20260905154419 70 294 2.6 3.5 0.00 0.00 0.00 35 1033.5
20260905153915 71 234 1.7 3.5 0.00 0.00 0.00 34 1033.5
20260905153411 70 303 1.7 7.0 0.00 0.00 0.00 37 1033.5
20260905152910 69 203 1.7 3.5 0.00 0.00 0.00 37 1033.5
20260905152409 68 269 4.3 6.1 0.00 0.00 0.00 37 1033.5
20260905151905 68 291 0.9 6.1 0.00 0.00 0.00 38 1033.3
20260905151400 68 234 3.5 5.2 0.00 0.00 0.00 38 1033.5
20260905150855 67 251 1.7 6.1 0.00 0.00 0.00 40 1033.5
20260905150354 68 340 3.5 7.0 0.00 0.00 0.00 39 1033.3
20260905145851 68 275 0.9 3.5 0.00 0.00 0.00 39 1033.2
20260905145346 67 325 1.7 5.2 0.00 0.00 0.00 40 1033.5
20260905144845 67 303 3.5 6.1 0.00 0.00 0.00 40 1033.5
20260905144341 66 269 5.2 7.8 0.00 0.00 0.00 40 1033.5
20260905143839 66 233 6.1 8.7 0.00 0.00 0.00 41 1033.5
20260905143328 67 256 0.0 1.7 0.00 0.00 0.00 40 1033.3
20260905142827 66 251 0.0 2.6 0.00 0.00 0.00 41 1033.5
20260905142321 66 291 1.7 1.7 0.00 0.00 0.00 41 1033.3
20260905141818 65 247 1.7 3.5 0.00 0.00 0.00 42 1033.5
20260905141313 65 246 3.5 3.5 0.00 0.00 0.00 42 1033.3
20260905140808 64 217 4.3 6.1 0.00 0.00 0.00 42 1033.6
20260905140302 64 173 1.7 3.5 0.00 0.00 0.00 43 1033.2
20260905135801 63 304 6.1 8.7 0.00 0.00 0.00 43 1033.1
20260905135258 63 296 5.2 7.8 0.00 0.00 0.00 43 1033.1
20260905134757 63 236 3.5 5.2 0.00 0.00 0.00 43 1032.9
20260905134251 63 218 5.2 7.0 0.00 0.00 0.00 44 1032.8
20260905133745 62 244 1.7 7.0 0.00 0.00 0.00 44 1032.9
20260905133241 62 203 2.6 6.1 0.00 0.00 0.00 45 1033.1
20260905132740 62 240 0.9 5.2 0.00 0.00 0.00 45 1032.8
20260905132236 62 252 1.7 8.7 0.00 0.00 0.00 44 1032.7
20260905131730 62 240 0.9 2.6 0.00 0.00 0.00 46 1032.8
20260905131225 60 223 3.5 6.1 0.00 0.00 0.00 44 1032.9
20260905130720 59 172 1.7 3.5 0.00 0.00 0.00 46 1032.7
20260905130219 56 225 1.7 1.7 0.00 0.00 0.00 52 1032.8
20260905125715 56 204 2.6 2.6 0.00 0.00 0.00 51 1032.7
20260905125210 56 200 2.6 2.6 0.00 0.00 0.00 52 1032.8
20260905124706 57 202 2.6 2.6 0.00 0.00 0.00 50 1032.5
20260905124202 60 196 1.7 3.5 0.00 0.00 0.00 47 1032.5
20260905123656 60 213 3.5 6.1 0.00 0.00 0.00 46 1032.3
20260905123154 59 211 1.7 5.2 0.00 0.00 0.00 47 1032.3
20260905122653 59 222 2.6 2.6 0.00 0.00 0.00 49 1032.3
20260905122148 59 200 1.7 3.5 0.00 0.00 0.00 50 1032.3
20260905121643 57 211 2.6 5.2 0.00 0.00 0.00 50 1032.3
20260905121138 56 216 1.7 1.7 0.00 0.00 0.00 54 1032.3
20260905120637 57 208 3.5 3.5 0.00 0.00 0.00 51 1032.4
20260905120132 56 213 2.6 3.5 0.00 0.00 0.00 54 1032.3
20260905115632 57 213 2.6 2.6 0.00 0.00 0.00 54 1032.1
20260905115127 58 219 1.7 3.5 0.00 0.00 0.00 52 1032.0
20260905114627 59 213 2.6 3.5 0.00 0.00 0.00 50 1032.3
20260905114125 59 233 3.5 3.5 0.00 0.00 0.00 49 1032.3
20260905113620 57 228 2.6 2.6 0.00 0.00 0.00 53 1032.3
20260905113115 58 231 2.6 3.5 0.00 0.00 0.00 52 1032.3
20260905112610 57 210 2.6 3.5 0.00 0.00 0.00 54 1032.1
20260905112106 57 205 1.7 2.6 0.00 0.00 0.00 55 1032.3
20260905111606 57 210 3.5 3.5 0.00 0.00 0.00 54 1032.3
20260905111105 56 236 1.7 2.6 0.00 0.00 0.00 55 1032.4
20260905110604 57 208 2.6 3.5 0.00 0.00 0.00 55 1032.3
20260905110059 57 207 2.6 2.6 0.00 0.00 0.00 56 1032.3
20260905105554 57 206 3.5 3.5 0.00 0.00 0.00 55 1032.3
20260905105053 57 218 2.6 3.5 0.00 0.00 0.00 57 1032.4
20260905104549 56 206 2.6 2.6 0.00 0.00 0.00 57 1032.1
20260905104048 57 211 2.6 2.6 0.00 0.00 0.00 57 1032.0
20260905103545 56 203 3.5 3.5 0.00 0.00 0.00 56 1032.0
20260905103041 56 216 2.6 2.6 0.00 0.00 0.00 56 1032.3
20260905102536 56 207 2.6 2.6 0.00 0.00 0.00 57 1032.1
20260905102033 56 197 2.6 3.5 0.00 0.00 0.00 56 1032.1
20260905101531 56 201 2.6 3.5 0.00 0.00 0.00 58 1031.9
20260905101029 56 208 2.6 3.5 0.00 0.00 0.00 57 1032.0
20260905100526 56 206 2.6 3.5 0.00 0.00 0.00 57 1032.1
20260905100025 55 207 2.6 2.6 0.00 0.00 0.00 58 1032.0
20260905095520 55 204 2.6 3.5 0.00 0.00 0.00 58 1032.3
20260905095015 55 207 2.6 3.5 0.00 0.00 0.00 60 1032.0
20260905094510 55 201 2.6 3.5 0.00 0.00 0.00 60 1032.0
20260905094009 55 209 2.6 2.6 0.00 0.00 0.00 60 1032.0
20260905093504 55 206 2.6 2.6 0.00 0.00 0.00 61 1031.9
20260905093000 55 202 2.6 2.6 0.00 0.00 0.00 60 1031.9
20260905092455 55 199 2.6 2.6 0.00 0.00 0.00 59 1031.9
20260905091951 55 199 2.6 2.6 0.00 0.00 0.00 60 1032.0
20260905091445 55 201 2.6 2.6 0.00 0.00 0.00 60 1031.8
20260905090945 55 205 2.6 2.6 0.00 0.00 0.00 59 1031.9
20260905090440 55 206 2.6 2.6 0.00 0.00 0.00 59 1032.0
20260905085939 55 205 2.6 2.6 0.00 0.00 0.00 60 1032.0
20260905085438 55 199 2.6 2.6 0.00 0.00 0.00 59 1032.1
20260905084934 55 197 2.6 2.6 0.00 0.00 0.00 59 1032.0
20260905084434 55 204 2.6 2.6 0.00 0.00 0.00 59 1031.8
20260905083928 55 201 2.6 2.6 0.00 0.00 0.00 59 1031.8
20260905083424 55 212 1.7 2.6 0.00 0.00 0.00 59 1031.8
20260905082920 55 207 1.7 2.6 0.00 0.00 0.00 59 1032.0
20260905082416 55 209 2.6 2.6 0.00 0.00 0.00 58 1031.9
20260905081915 55 205 2.6 2.6 0.00 0.00 0.00 59 1032.1
20260905081410 55 205 2.6 2.6 0.00 0.00 0.00 58 1031.9
20260905080910 56 208 2.6 2.6 0.00 0.00 0.00 58 1031.9
20260905080409 56 210 2.6 2.6 0.00 0.00 0.00 57 1032.0
20260905075908 56 201 2.6 2.6 0.00 0.00 0.00 57 1031.9
20260905075403 56 207 2.6 3.5 0.00 0.00 0.00 56 1032.0
20260905074902 56 210 2.6 3.5 0.00 0.00 0.00 56 1032.1
20260905074358 56 206 2.6 2.6 0.00 0.00 0.00 57 1032.1
20260905073854 56 203 2.6 2.6 0.00 0.00 0.00 56 1031.9
20260905073348 56 206 2.6 2.6 0.00 0.00 0.00 56 1032.0
20260905072843 57 205 2.6 3.5 0.00 0.00 0.00 56 1032.0
20260905072338 57 200 2.6 3.5 0.00 0.00 0.00 56 1032.3
20260905071835 57 201 2.6 3.5 0.00 0.00 0.00 56 1032.0
20260905071331 57 207 2.6 3.5 0.00 0.00 0.00 55 1031.9
20260905070825 56 206 2.6 2.6 0.00 0.00 0.00 57 1032.0
20260905070322 57 204 2.6 2.6 0.00 0.00 0.00 56 1032.0
20260905065820 57 205 2.6 2.6 0.00 0.00 0.00 56 1032.0
20260905065319 57 210 2.6 2.6 0.00 0.00 0.00 55 1031.9
20260905064814 57 205 2.6 2.6 0.00 0.00 0.00 55 1032.0
20260905064310 58 206 1.7 3.5 0.00 0.00 0.00 54 1032.0
20260905063808 58 212 2.6 2.6 0.00 0.00 0.00 53 1032.1
20260905063259 58 201 2.6 2.6 0.00 0.00 0.00 54 1032.0
20260905062754 58 205 1.7 2.6 0.00 0.00 0.00 54 1031.8
20260905062249 58 201 1.7 3.5 0.00 0.00 0.00 53 1032.0
20260905061743 59 225 1.7 2.6 0.00 0.00 0.00 52 1031.8
20260905061238 60 222 2.6 3.5 0.00 0.00 0.00 50 1031.9
20260905060732 60 205 2.6 3.5 0.00 0.00 0.00 50 1031.9
20260905060230 60 213 2.6 3.5 0.00 0.00 0.00 50 1032.0
20260905055727 59 210 2.6 2.6 0.00 0.00 0.00 52 1031.9
20260905055223 60 214 1.7 2.6 0.00 0.00 0.00 51 1031.8
20260905054718 60 212 3.5 3.5 0.00 0.00 0.00 51 1031.9
20260905054215 60 211 2.6 3.5 0.00 0.00 0.00 50 1031.8
20260905053713 59 230 2.6 2.6 0.00 0.00 0.00 51 1031.8
20260905053208 60 227 1.7 3.5 0.00 0.00 0.00 50 1032.0
20260905052703 59 232 1.7 1.7 0.00 0.00 0.00 51 1031.9
20260905052158 59 219 1.7 2.6 0.00 0.00 0.00 53 1031.9
20260905051658 60 217 1.7 2.6 0.00 0.00 0.00 52 1031.9
20260905051155 60 238 0.9 1.7 0.00 0.00 0.00 50 1031.9
20260905050651 61 208 1.7 3.5 0.00 0.00 0.00 49 1031.9
20260905050147 60 237 1.7 2.6 0.00 0.00 0.00 49 1031.8
20260905045646 60 224 1.7 2.6 0.00 0.00 0.00 51 1031.9
20260905045143 60 184 2.6 2.6 0.00 0.00 0.00 51 1032.0
20260905044642 60 217 1.7 2.6 0.00 0.00 0.00 51 1031.9
20260905044137 60 212 2.6 3.5 0.00 0.00 0.00 49 1031.9
20260905043636 59 214 1.7 2.6 0.00 0.00 0.00 51 1031.9
20260905043131 60 203 2.6 2.6 0.00 0.00 0.00 51 1031.8
20260905042630 60 214 1.7 2.6 0.00 0.00 0.00 51 1031.9
20260905042125 60 214 2.6 2.6 0.00 0.00 0.00 51 1032.0
20260905041621 61 208 2.6 2.6 0.00 0.00 0.00 50 1031.9
20260905041117 60 208 2.6 2.6 0.00 0.00 0.00 51 1032.0
20260905040616 60 211 2.6 2.6 0.00 0.00 0.00 52 1032.0
20260905040115 60 225 1.7 1.7 0.00 0.00 0.00 52 1032.3
20260905035610 60 234 1.7 1.7 0.00 0.00 0.00 52 1032.1
20260905035107 61 214 2.6 2.6 0.00 0.00 0.00 52 1032.1
20260905034603 61 257 0.0 0.9 0.00 0.00 0.00 52 1032.1
20260905034102 62 237 0.9 2.6 0.00 0.00 0.00 51 1032.1
20260905033556 61 224 1.7 2.6 0.00 0.00 0.00 51 1032.0
20260905033052 62 244 1.7 2.6 0.00 0.00 0.00 50 1032.0
20260905032552 63 270 0.9 3.5 0.00 0.00 0.00 49 1032.1
20260905032047 63 253 2.6 2.6 0.00 0.00 0.00 49 1032.0
20260905031543 64 220 1.7 1.7 0.00 0.00 0.00 47 1032.3
20260905031042 64 259 1.7 3.5 0.00 0.00 0.00 46 1032.0
20260905030538 64 225 2.6 2.6 0.00 0.00 0.00 46 1032.1
20260905030038 64 246 1.7 3.5 0.00 0.00 0.00 46 1032.3
20260905025533 64 236 0.9 1.7 0.00 0.00 0.00 46 1032.1
20260905025029 64 240 0.9 1.7 0.00 0.00 0.00 46 1032.3
20260905024524 64 231 1.7 2.6 0.00 0.00 0.00 46 1032.0
20260905024019 64 242 0.9 3.5 0.00 0.00 0.00 46 1031.9
20260905023514 64 250 0.9 1.7 0.00 0.00 0.00 45 1031.9
20260905023009 64 284 0.0 3.5 0.00 0.00 0.00 44 1031.6
20260905022503 64 256 0.0 2.6 0.00 0.00 0.00 45 1031.4
20260905021959 64 265 1.7 1.7 0.00 0.00 0.00 44 1031.5
20260905021458 63 256 0.9 0.9 0.00 0.00 0.00 45 1031.6
20260905020953 63 256 0.0 0.0 0.00 0.00 0.00 47 1031.5
20260905020453 63 252 0.0 0.9 0.00 0.00 0.00 48 1031.1
20260905015948 62 287 0.9 0.9 0.00 0.00 0.00 46 1031.6
20260905015446 62 240 0.9 0.9 0.00 0.00 0.00 47 1031.6
20260905014945 62 230 1.7 1.7 0.00 0.00 0.00 48 1031.5
20260905014441 62 240 0.9 1.7 0.00 0.00 0.00 47 1031.4
20260905013936 62 238 0.9 2.6 0.00 0.00 0.00 49 1031.2
20260905013433 62 233 0.9 1.7 0.00 0.00 0.00 47 1031.1
20260905012932 62 241 0.9 1.7 0.00 0.00 0.00 48 1031.4
20260905012428 62 220 1.7 2.6 0.00 0.00 0.00 47 1031.1
20260905011925 63 230 1.7 1.7 0.00 0.00 0.00 47 1031.2
20260905011420 63 232 1.7 1.7 0.00 0.00 0.00 46 1031.4
20260905010915 63 240 0.9 1.7 0.00 0.00 0.00 44 1031.4
20260905010411 63 250 0.0 0.9 0.00 0.00 0.00 43 1031.4
20260905005906 64 224 1.7 1.7 0.00 0.00 0.00 43 1031.4
20260905005402 64 242 0.9 0.9 0.00 0.00 0.00 44 1031.2
20260905004857 64 233 0.9 1.7 0.00 0.00 0.00 42 1031.5
20260905004352 65 216 1.7 2.6 0.00 0.00 0.00 41 1031.4
20260905003847 65 229 1.7 1.7 0.00 0.00 0.00 41 1031.4
20260905003343 66 240 0.9 0.9 0.00 0.00 0.00 41 1031.4
20260905002838 68 221 1.7 1.7 0.00 0.00 0.00 39 1031.4
20260905002337 69 249 0.0 0.9 0.00 0.00 0.00 37 1031.2
20260905001832 69 280 0.9 1.7 0.00 0.00 0.00 34 1031.2
20260905001327 71 269 0.9 1.7 0.00 0.00 0.00 34 1031.4
20260905000823 70 252 0.0 0.0 0.00 0.00 0.00 37 1031.5
20260905000318 70 270 0.9 1.7 0.00 0.00 0.00 34 1031.2
20260904235812 70 253 0.0 0.9 0.00 0.00 0.00 34 1031.1
20260904235306 69 231 0.9 0.9 0.00 0.00 0.00 35 1031.2
20260904234756 70 249 0.0 1.7 0.00 0.00 0.00 34 1031.2
20260904234246 70 276 0.0 0.9 0.00 0.00 0.00 34 1031.2
20260904233742 70 257 0.9 0.9 0.00 0.00 0.00 34 1031.2
20260904233237 70 278 0.9 3.5 0.00 0.00 0.00 34 1030.8
20260904232734 70 274 0.0 2.6 0.00 0.00 0.00 33 1031.0
20260904232229 70 266 0.0 1.7 0.00 0.00 0.00 33 1031.0
20260904231725 71 335 1.7 5.2 0.00 0.00 0.00 32 1031.0
20260904231220 70 271 0.9 0.9 0.00 0.00 0.00 34 1031.0
20260904230715 70 273 1.7 1.7 0.00 0.00 0.00 33 1031.0
20260904230209 71 358 2.6 2.6 0.00 0.00 0.00 33 1031.1
20260904225709 71 288 0.9 2.6 0.00 0.00 0.00 32 1031.1
20260904225203 71 270 0.0 0.9 0.00 0.00 0.00 33 1031.0
20260904224702 71 319 0.0 1.7 0.00 0.00 0.00 34 1031.1
20260904224157 71 263 0.0 1.7 0.00 0.00 0.00 32 1031.2
20260904223656 71 270 0.0 2.6 0.00 0.00 0.00 32 1031.0
20260904223151 71 262 1.7 7.8 0.00 0.00 0.00 32 1030.8
20260904222647 75 32 5.2 7.0 0.00 0.00 0.00 30 1031.0
20260904222143 73 253 2.6 5.2 0.00 0.00 0.00 31 1030.8
20260904221642 72 257 0.0 1.7 0.00 0.00 0.00 32 1031.1
20260904221137 72 346 1.7 5.2 0.00 0.00 0.00 33 1031.0
20260904220632 72 273 0.0 2.6 0.00 0.00 0.00 33 1031.1
20260904220127 72 121 4.3 5.2 0.00 0.00 0.00 31 1030.8
20260904215627 72 259 2.6 2.6 0.00 0.00 0.00 31 1030.8
20260904215123 73 300 0.9 2.6 0.00 0.00 0.00 32 1031.0
20260904214623 73 298 1.7 5.2 0.00 0.00 0.00 30 1030.7
20260904214120 73 262 1.7 5.2 0.00 0.00 0.00 30 1030.8
20260904213617 73 222 0.0 5.2 0.00 0.00 0.00 31 1031.0
20260904213114 71 241 0.9 7.0 0.00 0.00 0.00 33 1030.8
20260904212613 71 325 1.7 5.2 0.00 0.00 0.00 32 1031.1
20260904212108 72 193 2.6 6.1 0.00 0.00 0.00 31 1031.2
20260904211608 73 36 3.5 5.2 0.00 0.00 0.00 31 1031.2
20260904211104 75 16 2.6 3.5 0.00 0.00 0.00 29 1030.8
20260904210603 76 275 0.9 11.3 0.00 0.00 0.00 29 1031.0
20260904210059 74 20 6.1 9.6 0.00 0.00 0.00 30 1031.0
20260904205554 75 320 2.6 7.0 0.00 0.00 0.00 31 1031.1
20260904205050 74 336 5.2 7.0 0.00 0.00 0.00 31 1031.4
20260904204546 74 17 1.7 3.5 0.00 0.00 0.00 30 1031.0
20260904204042 77 325 3.5 5.2 0.00 0.00 0.00 29 1031.2
20260904203538 73 19 0.0 5.2 0.00 0.00 0.00 31 1031.1
20260904203034 75 107 3.5 6.1 0.00 0.00 0.00 29 1031.2
20260904202530 74 338 5.2 11.3 0.00 0.00 0.00 30 1031.4
20260904202026 73 332 2.6 7.0 0.00 0.00 0.00 29 1031.4
20260904201521 75 357 2.6 7.0 0.00 0.00 0.00 29 1031.5
20260904201016 75 329 0.9 3.5 0.00 0.00 0.00 29 1031.6
20260904200514 73 196 1.7 2.6 0.00 0.00 0.00 30 1031.5
20260904200010 71 24 1.7 5.2 0.00 0.00 0.00 32 1031.6
20260904195508 71 7 2.6 7.0 0.00 0.00 0.00 31 1031.6
20260904195008 75 316 3.5 7.0 0.00 0.00 0.00 29 1031.5
20260904194503 74 337 1.7 6.1 0.00 0.00 0.00 30 1031.9
20260904193958 73 297 0.9 1.7 0.00 0.00 0.00 30 1031.8
20260904193453 71 247 0.9 5.2 0.00 0.00 0.00 32 1031.8
20260904192949 70 78 2.6 3.5 0.00 0.00 0.00 31 1031.5
20260904192449 70 21 3.5 6.1 0.00 0.00 0.00 31 1031.6
20260904191945 71 20 1.7 5.2 0.00 0.00 0.00 31 1031.6
20260904191441 71 295 0.9 5.2 0.00 0.00 0.00 32 1031.8
20260904190938 71 330 1.7 12.2 0.00 0.00 0.00 31 1031.6
20260904190432 72 311 2.6 3.5 0.00 0.00 0.00 30 1031.8
20260904185929 71 269 3.5 5.2 0.00 0.00 0.00 30 1031.8
20260904185424 72 72 4.3 7.0 0.00 0.00 0.00 29 1031.9
20260904184919 72 295 3.5 6.1 0.00 0.00 0.00 31 1031.9
20260904184413 72 292 2.6 7.0 0.00 0.00 0.00 30 1031.5
20260904183908 72 205 2.6 8.7 0.00 0.00 0.00 32 1031.9
20260904183403 73 286 1.7 2.6 0.00 0.00 0.00 30 1032.0
20260904182859 71 303 3.5 7.8 0.00 0.00 0.00 31 1031.9
20260904182354 71 30 3.5 6.1 0.00 0.00 0.00 31 1031.8
20260904181849 72 318 6.1 7.0 0.00 0.00 0.00 30 1031.8
20260904181344 73 19 1.7 2.6 0.00 0.00 0.00 30 1031.9
20260904180839 71 131 6.1 7.8 0.00 0.00 0.00 30 1031.8
20260904180329 71 330 2.6 6.1 0.00 0.00 0.00 30 1032.0
20260904175828 72 339 1.7 3.5 0.00 0.00 0.00 29 1031.9
20260904175326 71 254 1.7 6.1 0.00 0.00 0.00 30 1032.1
20260904174821 71 30 2.6 7.0 0.00 0.00 0.00 30 1032.0
20260904174317 70 331 0.9 2.6 0.00 0.00 0.00 31 1032.0
20260904173812 71 242 0.0 5.2 0.00 0.00 0.00 29 1032.1
20260904173308 71 240 0.0 1.7 0.00 0.00 0.00 29 1032.1
20260904172804 70 298 0.9 3.5 0.00 0.00 0.00 32 1032.3
20260904172305 71 297 2.6 3.5 0.00 0.00 0.00 32 1032.1
20260904171753 70 241 0.9 2.6 0.00 0.00 0.00 30 1032.4